Boulder City, NV

5:32 PM PST on November 22, 2019 (GMT -0800)
Boulder City

Weather History for KBVU - September, 2019

Change the Weather History Date:

Friday, September 6, 2019

  Actual Average (WUND) Record (WUND)
Temperature  
Mean Temperature 88 °F -  
Max Temperature 102 °F - - (-1)
Min Temperature 75 °F - - (-1)
Cooling Degree Days 24    
Growing Degree Days 38 (Base 50)    
Moisture  
Dew Point 54 °F    
Average Humidity 33    
Maximum Humidity 61    
Minimum Humidity 18    
Precipitation  
Precipitation 0.00 in - - ()
Sea Level Pressure  
Sea Level Pressure 29.99 in    
Wind  
Wind Speed 2 mph ()    
Max Wind Speed 13 mph    
Max Gust Speed 20 mph    
Visibility 10.0 miles    
Events      
Averages and records for this station are not official NWS values.
T = Trace of Precipitation, MM = Missing Value Source: Averaged Metar Reports

Daily Weather History Graph

Daily Weather History Graph

Search for Another Location

Airport or City:

Astronomy

Sep. 06, 2019 Rise Set
Actual Time 6:15 AM PDT 7:00 PM PDT
Civil Twilight 5:49 AM PDT 7:25 PM PDT
Nautical Twilight 5:18 AM PDT 7:56 PM PDT
Astronomical Twilight 4:46 AM PDT 8:27 PM PDT
Moon 2:12 PM PDT (9/6) No Moon Set
Length of Visible Light 13h 36m
Length of Day
12h 45m
First Quarter, 57% of the Moon is Illuminated
Sep 6
First Quarter
Sep 13
Full
Sep 21
Last Quarter
Sep 28
New
Oct 5
First Quarter

Hourly Weather History & Observations

Time (PDT) Temp. Heat Index Dew Point Humidity Pressure Visibility Wind Dir Wind Speed Gust Speed Precip Events Conditions
12:15 AM 82.4 °F 82.0 °F 57.2 °F 42% 30.02 in 10.0 mi Calm Calm - N/A   Clear
12:35 AM 82.4 °F 82.5 °F 59.0 °F 45% 30.02 in 10.0 mi NE 3.5 mph - N/A   Clear
12:55 AM 80.6 °F 81.1 °F 59.0 °F 48% 30.02 in 10.0 mi NNE 3.5 mph - N/A   Clear
1:15 AM 80.6 °F 81.1 °F 59.0 °F 48% 30.02 in 10.0 mi Calm Calm - N/A   Partly Cloudy
1:35 AM 82.4 °F 82.0 °F 57.2 °F 42% 30.02 in 10.0 mi Calm Calm - N/A   Partly Cloudy
1:55 AM 78.8 °F - 57.2 °F 47% 30.02 in 10.0 mi Calm Calm - N/A   Clear
2:15 AM 80.6 °F 80.8 °F 57.2 °F 45% 30.01 in 10.0 mi Calm Calm - N/A   Clear
2:35 AM 78.8 °F - 57.2 °F 47% 30.01 in 10.0 mi Calm Calm - N/A   Clear
2:55 AM 78.8 °F - 57.2 °F 47% 30.01 in 10.0 mi Calm Calm - N/A   Partly Cloudy
3:15 AM 78.8 °F - 57.2 °F 47% 30.01 in 10.0 mi Calm Calm - N/A   Clear
3:35 AM 78.8 °F - 57.2 °F 47% 30.01 in 10.0 mi Calm Calm - N/A   Partly Cloudy
3:55 AM 80.6 °F 80.5 °F 55.4 °F 42% 30.02 in 10.0 mi Calm Calm - N/A   Clear
4:15 AM 78.8 °F - 57.2 °F 47% 30.02 in 10.0 mi Calm Calm - N/A   Clear
4:35 AM 75.2 °F - 59.0 °F 57% 30.02 in 10.0 mi Calm Calm - N/A   Partly Cloudy
4:55 AM 75.2 °F - 59.0 °F 57% 30.01 in 10.0 mi Calm Calm - N/A   Clear
5:15 AM 75.2 °F - 60.8 °F 61% 30.02 in 10.0 mi Calm Calm - N/A   Clear
5:35 AM 75.2 °F - 60.8 °F 61% 30.02 in 10.0 mi East 3.5 mph - N/A   Clear
5:55 AM 77.0 °F - 60.8 °F 57% 30.03 in 10.0 mi Calm Calm - N/A   Clear
6:15 AM 75.2 °F - 59.0 °F 57% 30.03 in 10.0 mi Calm Calm - N/A   Clear
6:35 AM 75.2 °F - 60.8 °F 61% 30.04 in 10.0 mi Calm Calm - N/A   Clear
6:55 AM 77.0 °F - 60.8 °F 57% 30.05 in 10.0 mi Calm Calm - N/A   Clear
7:15 AM 78.8 °F - 60.8 °F 54% 30.05 in 10.0 mi Calm Calm - N/A   Clear
7:35 AM 80.6 °F 81.5 °F 60.8 °F 51% 30.06 in 10.0 mi Calm Calm - N/A   Clear
7:55 AM 82.4 °F 82.5 °F 59.0 °F 45% 30.06 in 10.0 mi Calm Calm - N/A   Clear
8:15 AM 82.4 °F 82.5 °F 59.0 °F 45% 30.07 in 10.0 mi Calm Calm - N/A   Clear
8:35 AM 84.2 °F 83.8 °F 59.0 °F 42% 30.07 in 10.0 mi Calm Calm - N/A   Clear
8:55 AM 86.0 °F 85.4 °F 59.0 °F 40% 30.07 in 10.0 mi Calm Calm - N/A   Clear
9:15 AM 87.8 °F 86.5 °F 57.2 °F 35% 30.07 in 10.0 mi Calm Calm - N/A   Clear
9:35 AM 89.6 °F 87.7 °F 55.4 °F 31% 30.07 in 10.0 mi Calm Calm - N/A   Clear
9:55 AM 89.6 °F 87.7 °F 55.4 °F 31% 30.07 in 10.0 mi Calm Calm - N/A   Clear
10:15 AM 91.4 °F 89.4 °F 55.4 °F 29% 30.06 in 10.0 mi Calm Calm - N/A   Clear
10:35 AM 93.2 °F 90.8 °F 53.6 °F 26% 30.06 in 10.0 mi East 4.6 mph - N/A   Clear
10:55 AM 93.2 °F 90.8 °F 53.6 °F 26% 30.05 in 10.0 mi Calm Calm - N/A   Clear
11:15 AM 95.0 °F 92.7 °F 53.6 °F 25% 30.05 in 10.0 mi Calm Calm - N/A   Clear
11:35 AM 96.8 °F 94.4 °F 53.6 °F 23% 30.04 in 10.0 mi Variable 3.5 mph - N/A   Clear
11:55 AM 96.8 °F 94.4 °F 53.6 °F 23% 30.04 in 10.0 mi Calm Calm - N/A   Clear
12:15 PM 96.8 °F 94.4 °F 53.6 °F 23% 30.02 in 10.0 mi Variable 3.5 mph - N/A   Clear
12:35 PM 98.6 °F 96.4 °F 53.6 °F 22% 30.02 in 10.0 mi South 9.2 mph - N/A   Clear
12:55 PM 98.6 °F 96.4 °F 53.6 °F 22% 30.01 in 10.0 mi Calm Calm - N/A   Clear
1:15 PM 100.4 °F 98.4 °F 53.6 °F 21% 30.00 in 10.0 mi Variable 5.8 mph 13.8 mph N/A   Clear
1:35 PM 100.4 °F - 51.8 °F 20% 29.99 in 10.0 mi Calm Calm 13.8 mph N/A   Clear
1:55 PM 100.4 °F 98.4 °F 53.6 °F 21% 29.98 in 10.0 mi Variable 4.6 mph - N/A   Clear
2:15 PM 102.2 °F - 51.8 °F 18% 29.97 in 10.0 mi ESE 10.4 mph - N/A   Clear
2:35 PM 102.2 °F - 51.8 °F 18% 29.96 in 10.0 mi South 12.7 mph - N/A   Clear
2:55 PM 100.4 °F - 51.8 °F 20% 29.95 in 10.0 mi ESE 8.1 mph 13.8 mph N/A   Clear
3:15 PM 100.4 °F - 51.8 °F 20% 29.94 in 10.0 mi Variable 5.8 mph 12.7 mph N/A   Partly Cloudy
3:35 PM 102.2 °F - 51.8 °F 18% 29.93 in 10.0 mi South 10.4 mph - N/A   Scattered Clouds
3:55 PM 100.4 °F - 51.8 °F 20% 29.93 in 10.0 mi SSE 9.2 mph 16.1 mph N/A   Clear
4:15 PM 100.4 °F - 51.8 °F 20% 29.92 in 10.0 mi Variable 5.8 mph 16.1 mph N/A   Clear
4:35 PM 102.2 °F - 51.8 °F 18% 29.91 in 10.0 mi Variable 11.5 mph - N/A   Partly Cloudy
4:55 PM 102.2 °F - 51.8 °F 18% 29.92 in 10.0 mi WSW 8.1 mph - N/A   Mostly Cloudy
5:15 PM 102.2 °F - 51.8 °F 18% 29.91 in 10.0 mi SSW 10.4 mph 19.6 mph N/A   Partly Cloudy
5:35 PM 100.4 °F - 51.8 °F 20% 29.91 in 10.0 mi WSW 6.9 mph - N/A   Clear
5:55 PM 100.4 °F - 51.8 °F 20% 29.91 in 10.0 mi Variable 3.5 mph - N/A   Mostly Cloudy
6:15 PM 100.4 °F - 51.8 °F 20% 29.90 in 10.0 mi Calm Calm - N/A   Mostly Cloudy
6:35 PM 100.4 °F - 50.0 °F 18% 29.90 in 10.0 mi SSW 8.1 mph - N/A   Partly Cloudy
6:55 PM 100.4 °F - 50.0 °F 18% 29.91 in 10.0 mi SW 5.8 mph - N/A   Clear
7:15 PM 98.6 °F - 50.0 °F 19% 29.91 in 10.0 mi South 11.5 mph - N/A   Clear
7:35 PM 96.8 °F - 51.8 °F 22% 29.91 in 10.0 mi South 6.9 mph - N/A   Clear
7:55 PM 96.8 °F - 51.8 °F 22% 29.92 in 10.0 mi South 5.8 mph - N/A   Clear
8:15 PM 95.0 °F - 46.4 °F 19% 29.93 in 10.0 mi SW 4.6 mph - N/A   Clear
8:35 PM 93.2 °F - 48.2 °F 21% 29.93 in 10.0 mi Calm Calm - N/A   Clear
8:55 PM 93.2 °F - 48.2 °F 21% 29.94 in 10.0 mi Calm Calm - N/A   Clear
9:15 PM 93.2 °F - 46.4 °F 20% 29.94 in 10.0 mi SSW 4.6 mph - N/A   Clear
9:35 PM 93.2 °F - 46.4 °F 20% 29.94 in 10.0 mi SSW 4.6 mph - N/A   Clear
9:55 PM 93.2 °F - 46.4 °F 20% 29.94 in 10.0 mi SW 8.1 mph - N/A   Clear
10:15 PM 91.4 °F - 46.4 °F 21% 29.94 in 10.0 mi SW 4.6 mph - N/A   Clear
10:35 PM 89.6 °F - 48.2 °F 24% 29.94 in 10.0 mi Calm Calm - N/A   Partly Cloudy
10:55 PM 86.0 °F 84.2 °F 53.6 °F 33% 29.94 in 10.0 mi Calm Calm - N/A   Clear
11:15 PM 86.0 °F - 50.0 °F 29% 29.94 in 10.0 mi Calm Calm - N/A   Clear
11:35 PM 86.0 °F - 51.8 °F 31% 29.94 in 10.0 mi NW 3.5 mph - N/A   Clear
11:55 PM 84.2 °F - 51.8 °F 33% 29.95 in 10.0 mi Calm Calm - N/A   Clear